Dallas Paulding County Region, GA

5:36 PM EST on November 21, 2019 (GMT -0500)
Dallas Paulding County Region

Weather History for KPUJ - June, 2019

Change the Weather History Date:

Wednesday, June 12, 2019

  Actual Average (KMGE) Record (KMGE)
Temperature  
Mean Temperature 68 °F -  
Max Temperature 75 °F 82 °F 95 °F (2004)
Min Temperature 62 °F 65 °F 62 °F (2002)
Cooling Degree Days 4    
Growing Degree Days 18 (Base 50)    
Moisture  
Dew Point 62 °F    
Average Humidity 85    
Maximum Humidity 100    
Minimum Humidity 64    
Precipitation  
Precipitation 0.00 in - - ()
Sea Level Pressure  
Sea Level Pressure 29.98 in    
Wind  
Wind Speed 7 mph ()    
Max Wind Speed 13 mph    
Max Gust Speed 20 mph    
Visibility 10.0 miles    
Events Rain    
Averages and records for this station are not official NWS values.
T = Trace of Precipitation, MM = Missing Value Source: Averaged Metar Reports

Daily Weather History Graph

Daily Weather History Graph

Search for Another Location

Airport or City:

Astronomy

Jun. 12, 2019 Rise Set
Actual Time 6:28 AM EDT 8:51 PM EDT
Civil Twilight 5:59 AM EDT 9:20 PM EDT
Nautical Twilight 5:23 AM EDT 9:56 PM EDT
Astronomical Twilight 4:44 AM EDT 10:35 PM EDT
Moon 4:11 PM EDT (6/12) 3:25 AM EDT (6/12)
Length of Visible Light 15h 21m
Length of Day
14h 22m
Waxing Gibbous, 76% of the Moon is Illuminated
Jun 12
Waxing Gibbous
Jun 17
Full
Jun 25
Last Quarter
Jul 2
New
Jul 9
First Quarter

Hourly Weather History & Observations

Time (EDT) Temp. Dew Point Humidity Pressure Visibility Wind Dir Wind Speed Gust Speed Precip Events Conditions
12:15 AM 68.0 °F 55.4 °F 64% 30.04 in 10.0 mi NNE 5.8 mph - N/A   Overcast
12:35 AM 68.0 °F 60.8 °F 78% 30.04 in 10.0 mi East 9.2 mph - N/A   Overcast
12:55 AM 66.2 °F 66.2 °F 100% 30.03 in 10.0 mi East 8.1 mph - N/A   Overcast
1:15 AM 66.2 °F 66.2 °F 100% 30.03 in 10.0 mi East 9.2 mph - N/A   Overcast
1:35 AM 64.4 °F 64.4 °F 100% 30.03 in 10.0 mi East 11.5 mph 18.4 mph N/A   Overcast
1:55 AM 64.4 °F 64.4 °F 100% 30.03 in 10.0 mi East 10.4 mph - N/A   Overcast
2:15 AM 62.6 °F 62.6 °F 100% 30.03 in 7.0 mi East 10.4 mph - N/A Rain Light Rain
2:35 AM 62.6 °F 62.6 °F 100% 30.03 in 10.0 mi ENE 5.8 mph - N/A Rain Rain
2:55 AM 62.6 °F 62.6 °F 100% 30.02 in 10.0 mi ENE 6.9 mph - N/A Rain Rain
3:15 AM 62.6 °F 62.6 °F 100% 30.02 in 10.0 mi ENE 4.6 mph - N/A   Overcast
3:35 AM 62.6 °F 62.6 °F 100% 30.00 in 10.0 mi NE 4.6 mph - N/A   Overcast
3:55 AM 62.6 °F 62.6 °F 100% 30.01 in 10.0 mi ENE 4.6 mph - N/A   Overcast
4:15 AM 62.6 °F 62.6 °F 100% 30.00 in 10.0 mi ENE 4.6 mph - N/A   Overcast
4:35 AM 62.6 °F 62.6 °F 100% 30.00 in 10.0 mi East 4.6 mph - N/A   Overcast
4:55 AM 62.6 °F 62.6 °F 100% 30.00 in 10.0 mi East 5.8 mph - N/A   Overcast
5:15 AM 62.6 °F 62.6 °F 100% 30.00 in 10.0 mi East 5.8 mph - N/A   Scattered Clouds
5:35 AM 62.6 °F 62.6 °F 100% 29.99 in 10.0 mi East 5.8 mph - N/A   Scattered Clouds
5:55 AM 62.6 °F 62.6 °F 100% 29.99 in 10.0 mi East 5.8 mph - N/A   Clear
6:15 AM 62.6 °F 62.6 °F 100% 30.00 in 10.0 mi East 4.6 mph - N/A   Mostly Cloudy
6:35 AM 62.6 °F 60.8 °F 94% 30.00 in 10.0 mi East 5.8 mph - N/A   Overcast
6:55 AM 62.6 °F 60.8 °F 94% 30.00 in 10.0 mi ESE 4.6 mph - N/A   Overcast
7:15 AM 62.6 °F 62.6 °F 100% 30.00 in 10.0 mi ESE 4.6 mph - N/A   Overcast
7:35 AM 62.6 °F 60.8 °F 94% 30.00 in 10.0 mi ESE 6.9 mph - N/A   Overcast
8:15 AM 62.6 °F 57.2 °F 82% 30.02 in 10.0 mi ESE 8.1 mph - N/A   Overcast
8:35 AM 64.4 °F 59.0 °F 83% 30.02 in 10.0 mi East 6.9 mph - N/A   Overcast
8:55 AM 64.4 °F 59.0 °F 83% 30.02 in 10.0 mi East 6.9 mph - N/A   Overcast
9:15 AM 64.4 °F 59.0 °F 83% 30.01 in 10.0 mi ESE 6.9 mph - N/A   Overcast
9:35 AM 66.2 °F 59.0 °F 78% 30.02 in 10.0 mi ESE 8.1 mph - N/A   Overcast
9:55 AM 66.2 °F 59.0 °F 78% 30.02 in 10.0 mi ESE 10.4 mph - N/A   Overcast
10:15 AM 68.0 °F 60.8 °F 78% 30.00 in 10.0 mi ESE 11.5 mph 16.1 mph N/A   Overcast
10:35 AM 69.8 °F 60.8 °F 73% 30.00 in 10.0 mi ESE 11.5 mph 16.1 mph N/A   Overcast
10:55 AM 69.8 °F 60.8 °F 73% 30.00 in 10.0 mi SE 11.5 mph 18.4 mph N/A   Overcast
11:15 AM 71.6 °F 60.8 °F 69% 30.00 in 10.0 mi ESE 11.5 mph 19.6 mph N/A   Overcast
11:35 AM 71.6 °F 60.8 °F 69% 30.00 in 10.0 mi East 12.7 mph - N/A   Overcast
11:55 AM 69.8 °F 60.8 °F 73% 30.00 in 10.0 mi ESE 12.7 mph - N/A   Overcast
12:15 PM 69.8 °F 60.8 °F 73% 30.00 in 10.0 mi East 10.4 mph - N/A   Overcast
12:35 PM 69.8 °F 62.6 °F 78% 30.00 in 10.0 mi ESE 8.1 mph - N/A   Overcast
12:55 PM 71.6 °F 60.8 °F 69% 30.00 in 10.0 mi ESE 8.1 mph - N/A   Overcast
1:15 PM 71.6 °F 62.6 °F 73% 30.00 in 10.0 mi SE 10.4 mph - N/A   Overcast
1:35 PM 73.4 °F 62.6 °F 69% 29.99 in 10.0 mi ESE 9.2 mph - N/A   Overcast
1:55 PM 75.2 °F 62.6 °F 65% 29.98 in 10.0 mi East 9.2 mph - N/A   Overcast
2:15 PM 71.6 °F 62.6 °F 73% 29.98 in 10.0 mi ESE 9.2 mph - N/A   Overcast
2:35 PM 71.6 °F 62.6 °F 73% 29.98 in 10.0 mi SE 6.9 mph - N/A   Overcast
2:55 PM 71.6 °F 62.6 °F 73% 29.97 in 10.0 mi ESE 8.1 mph - N/A   Overcast
3:15 PM 71.6 °F 62.6 °F 73% 29.96 in 10.0 mi SE 6.9 mph - N/A   Overcast
3:35 PM 71.6 °F 62.6 °F 73% 29.95 in 10.0 mi SE 10.4 mph - N/A   Overcast
3:55 PM 71.6 °F 62.6 °F 73% 29.95 in 10.0 mi ESE 11.5 mph - N/A   Overcast
4:15 PM 69.8 °F 62.6 °F 78% 29.94 in 10.0 mi SE 9.2 mph - N/A   Overcast
4:35 PM 69.8 °F 62.6 °F 78% 29.94 in 10.0 mi SE 6.9 mph - N/A   Overcast
4:55 PM 69.8 °F 62.6 °F 78% 29.94 in 10.0 mi SE 8.1 mph - N/A   Overcast
5:15 PM 69.8 °F 62.6 °F 78% 29.93 in 10.0 mi SE 5.8 mph - N/A   Overcast
5:35 PM 69.8 °F 62.6 °F 78% 29.94 in 10.0 mi ESE 12.7 mph 16.1 mph N/A   Overcast
5:55 PM 69.8 °F 62.6 °F 78% 29.92 in 10.0 mi ESE 6.9 mph - N/A   Overcast
6:15 PM 69.8 °F 62.6 °F 78% 29.92 in 10.0 mi SE 8.1 mph - N/A   Overcast
6:35 PM 69.8 °F 62.6 °F 78% 29.92 in 10.0 mi SE 6.9 mph - N/A   Overcast
6:55 PM 69.8 °F 62.6 °F 78% 29.93 in 10.0 mi SE 9.2 mph - N/A   Overcast
7:15 PM 68.0 °F 60.8 °F 78% 29.93 in 10.0 mi ESE 9.2 mph - N/A   Overcast
7:35 PM 68.0 °F 62.6 °F 83% 29.91 in 10.0 mi ESE 9.2 mph - N/A   Overcast
7:55 PM 68.0 °F 62.6 °F 83% 29.93 in 10.0 mi ESE 4.6 mph - N/A   Overcast
8:15 PM 68.0 °F 62.6 °F 83% 29.93 in 10.0 mi SE 5.8 mph - N/A   Overcast
8:35 PM 68.0 °F 62.6 °F 83% 29.93 in 10.0 mi SE 3.5 mph - N/A   Overcast
8:55 PM 68.0 °F 62.6 °F 83% 29.94 in 10.0 mi SE 3.5 mph - N/A   Overcast
9:15 PM 68.0 °F 62.6 °F 83% 29.94 in 10.0 mi SE 4.6 mph - N/A   Overcast
9:35 PM 66.2 °F 62.6 °F 88% 29.94 in 10.0 mi SSE 4.6 mph - N/A   Overcast
9:55 PM 66.2 °F 60.8 °F 83% 29.95 in 10.0 mi SSE 6.9 mph - N/A   Overcast
10:15 PM 66.2 °F 62.6 °F 88% 29.95 in 10.0 mi SSE 3.5 mph - N/A   Overcast
10:35 PM 66.2 °F 62.6 °F 88% 29.95 in 10.0 mi SE 4.6 mph - N/A   Overcast
10:55 PM 66.2 °F 62.6 °F 88% 29.95 in 10.0 mi SE 4.6 mph - N/A   Overcast
11:15 PM 64.4 °F 64.4 °F 100% 29.95 in 10.0 mi SE 3.5 mph - N/A   Overcast
11:35 PM 64.4 °F 64.4 °F 100% 29.95 in 10.0 mi SSE 4.6 mph - N/A   Overcast
11:55 PM 64.4 °F 64.4 °F 100% 29.95 in 10.0 mi SSE 3.5 mph - N/A   Overcast